Regional Weather Roundup
Issued by NWS Charleston, SC

Current Version | Previous Version | Text Only | Print | Product List | Glossary Off
Versions: 1 2 3 4 5 6 7 8 9 10 11 12 13 14 15 16 17 18 19 20 21 22 23 24 25 26 27 28 29 30 31 32 33 34 35 36 37 38 39 40 41 42 43 44 45 46 47 48 49 50
000 ASUS42 KCHS 221226 RWRCHS REGIONAL WEATHER ROUNDUP NATIONAL WEATHER SERVICE CHARLESTON SC 800 AM EDT FRI MAY 22 2015 NOTE: "FAIR" INDICATES FEW OR NO CLOUDS BELOW 12,000 FEET WITH NO SIGNIFICANT WEATHER AND/OR OBSTRUCTIONS TO VISIBILITY. NOT ALL STATIONS ARE QUALITY CONTROLLED BY THE NATIONAL WEATHER SERVICE. USE DATA WITH CAUTION...ESPECIALLY DEWPOINT OBSERVATIONS. SCZ027-030-031-034>040-042>050-221300- ...SOUTHEAST SOUTH CAROLINA... CITY SKY/WX TMP DP RH WIND PRES REMARKS N CHARLESTON PTSUNNY 68 54 60 NE17 30.09R 6HR MIN TEMP: 66; 6HR MAX TEMP: 74; WATERFRONT PAR N/A 69 60 73 NE15 30.06R MOUNT PLEASANT FAIR 68 55 64 N10G16 30.10R JOHNS ISLAND PTSUNNY 68 54 60 NE16G23 30.09R PINOPOLIS NOT AVBL MONCKS CORNER CLOUDY 68 54 60 NE12G20 30.11R SUMMERVILLE CLOUDY 68 55 64 N12G17 30.11R BEAUFORT MCAS PTSUNNY 69 60 73 NE14 30.08R 6HR MIN TEMP: 66; 6HR MAX TEMP: 76; BEAUFORT ARPT PTSUNNY 70 63 78 NE13 30.07R HILTON HEAD IS MOSUNNY 70 59 68 N8 30.08R WALTERBORO CLOUDY 68 55 64 NE13 30.11R ALLENDALE CLOUDY 68 57 68 CALM 30.09R ...SOUTHERN MIDLANDS AND PEE DEE... CITY SKY/WX TMP DP RH WIND PRES REMARKS GEORGETOWN NOT AVBL KINGSTREE NOT AVBL ORANGEBURG CLOUDY 67 52 58 NE14 30.11R 6HR MIN TEMP: 67; 6HR MAX TEMP: 71; BARNWELL CLOUDY 66 55 68 NE8 30.11R AIKEN CLOUDY 63 46 55 N8 30.15R MANNING CLOUDY 64 50 59 NE12 30.13R COLUMBIA CLOUDY 67 45 45 NE12G22 30.13R 6HR MIN TEMP: 66; 6HR MAX TEMP: 73; SUMTER PTSUNNY 64 48 56 N14 30.13R 6HR MIN TEMP: 64; 6HR MAX TEMP: 69; FLORENCE CLOUDY 64 49 57 NE10G20 30.14R 6HR MIN TEMP: 63; 6HR MAX TEMP: 67; MYRTLE BEACH PTSUNNY 64 54 68 N12 30.13R N MYRTLE BEACH CLOUDY 64 55 72 N10 30.11R 6HR MIN TEMP: 63; 6HR MAX TEMP: 67; $$ GAZ063-065-086>088-099>101-113>116-118-119-134>141-150-221300- ...SOUTHEAST GEORGIA... CITY SKY/WX TMP DP RH WIND PRES REMARKS SAVANNAH ARPT PTSUNNY 65 53 65 NW8 30.08R 6HR MIN TEMP: 65; 6HR MAX TEMP: 74; HUNTER AAF MOSUNNY 66 55 66 N9 30.05R 6HR MIN TEMP: 66; 6HR MAX TEMP: 72; FORT STEWART MOSUNNY 65 52 63 NW8 30.07R 6HR MIN TEMP: 64; 6HR MAX TEMP: 74; STATESBORO PTSUNNY 63 56 78 N5 30.10R SYLVANIA PTSUNNY 65 57 73 N5 30.10R CLAXTON FAIR 63 54 72 NW3 30.10R ...CSRA...CENTRAL AND FAR SOUTHEAST GEORGIA... CITY SKY/WX TMP DP RH WIND PRES REMARKS THOMSON MOSUNNY 63 54 71 N9 30.18R AUGUSTA-BUSH CLOUDY 64 51 62 N8 30.10R 6HR MIN TEMP: 59; 6HR MAX TEMP: 67; AUGUSTA-DANIEL PTSUNNY 63 49 60 N9 30.11R SWAINSBORO FAIR 63 54 72 NW6 30.11S VIDALIA MOSUNNY 63 52 67 NW8 30.12R EASTMAN FAIR 61 53 75 NW5 30.16R HAZLEHURST FAIR 64 53 67 N7 30.11R ALMA SUNNY 64 53 67 N7 30.10R 6HR MIN TEMP: 62; 6HR MAX TEMP: 72; WAYCROSS SUNNY 67 58 73 N8 30.11R JESUP FAIR 68 57 68 N6 30.11R BAXLEY FAIR 64 54 68 N9 30.11R BRUNSWICK SUNNY 70 59 68 NW6 30.09R SAINT SIMONS NOT AVBL $$ SCZ027-028-034-036>038-045-046-048>050-GAZ119-141-221300- ...LAKE AND SUPPLEMENTAL COASTAL OBSERVATIONS... STATION/POSITION TIME TEMP WIND PRES WAVE SWELL AIR SEA DIR/SP/G HT/PER HT/PER/DIR (UTC) (F) (DEG/KT/KT) (MB) (FT/S) (FT/S/D) UPR LAKE MARION NOT AVBL WINYAH BAY NOT AVBL LAKE MURRAY 1100 64 20/ 3/ 6 1019.3R ACE BASIN NERRS NOT AVBL FORT PULASKI 1200 67 78 330/ 8/ 10 1018.8R SAPELO ISLAND 1100 68 340/ 8 1018.0R $$ ANZ835-935-AMZ111-154-330-350-352-354-370-450-454-472-221300- ...C-MAN AND BUOY OBSERVATIONS... STATION/POSITION TIME TEMP WIND PRES WAVE SWELL AIR SEA DIR/SP/G HT/PER HT/PER/DIR (UTC) (F) (DEG/KT/KT) (MB) (FT/S) (FT/S/D) BUOY 41004 1150 70 76 30/ 23/ 27 1016.7R 7/ 5 2/ 9 BUOY 41008 1150 72 77 350/ 14/ 16 1018.0R 2/ 4 FOLLY BEACH CMAN 1200 68 20/ 15/ 19 1018.9R CAPERS NEARSHORE 1108 70 40/ 19/ 27 1018.5R FRIPP NEARSHORE 1100 70 350/ 12/ 16 1017.5R STATION/POSITION TIME TEMP WIND PRES WAVE SWELL AIR SEA DIR/SP/G HT/PER HT/PER/DIR (UTC) (F) (DEG/KT/KT) (MB) (FT/S) (FT/S/D) 5E ST. MARYS GA 1121 77 N/A 2/ 3 FRYING PAN BUOY 1150 68 74 20/ 17/ 23 1018.6R 4/ 5 BUOY 41025 1150 63 75 360/ 17/ 23 1017.7R 5/ 8 2/200/11 CAPE LOOKOUT NC 1200 62 10/ 12/ 17 1018.9R BUOY 41002 1150 75 74 240/ 12/ 14 1016.2R 4/ 7 3/260/ 7 BUOY 41010 1120 80 79 230/ 8/ 10 1017.0R ST AUGUSTINE FL 1200 73 72 360/ 8/ 9 1018.9R $$

USA.gov is the U.S. government's official web portal to all federal, state and local government web resources and services.